Home   Weather   Redlands   Past weeks

Flag for USA Past Weather in Redlands, California, USA — Yesterday and Last 2 Weeks

Now
82 °F

Sunny.


Feels Like: 80 °F
Forecast: 50 / 80 °F
Wind: 12 mph from North

Location: Norton Air Force Base / San Bern

Current Time: Apr 28, 2017 at 2:51:31 pm

Latest Report: Apr 28, 2017 at 1:50 pm


Visibility: 10 mi

Pressure: 29.76 "Hg

Humidity: 10%

Dew Point: 21 °F

Location of RedlandsLocation

Past Weather in Redlands — Graph

°F

Redlands Temperature Yesterday

Maximum temperature yesterday: 81 °F (at 2:47 pm)
Minimum temperature yesterday: 54 °F (at 5:37 am)
Average temperature yesterday: 66 °F

High & Low Weather Summary for the Past Weeks

 TemperatureHumidityPressure
High95 °F (Apr 22, 1:50 pm)86% (Apr 19, 3:57 am)30.13 "Hg (Apr 19, 3:57 am)
Low46 °F (Apr 14, 5:18 am)9% (Apr 21, 4:49 pm)29.73 "Hg (Apr 27, 4:45 pm)
Average66 °F49%29.95 "Hg
* Reported Apr 13 12:50 pm — Apr 28 12:50 pm, Redlands, Weather by CustomWeather, © 2017

Note: Actual official high and low records may vary slightly from our data, if they occured in-between our weather recording intervals... More about our weather records

Advertising

Redlands Weather History for the Previous 24 Hours

Scroll right to see more
 ConditionsComfort  
Time TempWeatherWind HumidityBarometerVisibility
12:50 pm
Fri, Apr 28
82 °FSunny.16 mph10%29.78 "Hg10 mi
11:50 am81 °FSunny.15 mph13%29.80 "Hg10 mi
10:50 am77 °FSunny.20 mph14%29.80 "Hg10 mi
9:46 am75 °FPassing clouds.25 mph15%29.80 "Hg10 mi
8:45 am68 °FScattered clouds.18 mph20%29.80 "Hg10 mi
7:00 am68 °FScattered clouds.17 mph20%29.79 "Hg10 mi
5:38 am68 °FClear.18 mph18%29.76 "Hg10 mi
4:58 am68 °FClear.18 mph18%29.74 "Hg10 mi
4:38 am66 °FClear.7 mph24%29.74 "Hg10 mi
4:17 am67 °FClear.9 mph22%29.75 "Hg10 mi
3:58 am66 °FClear.9 mph23%29.74 "Hg10 mi
3:38 am67 °FClear.13 mph22%29.74 "Hg10 mi
3:17 am65 °FClear.8 mph30%29.74 "Hg10 mi
2:58 am62 °FClear.8 mph55%29.74 "Hg10 mi
2:38 am62 °FClear.No wind60%29.74 "Hg10 mi
2:17 am60 °FClear.No wind62%29.74 "Hg10 mi
1:58 am62 °FClear.No wind62%29.74 "Hg10 mi
1:37 am62 °FClear.3 mph62%29.74 "Hg10 mi
1:18 am64 °FClear.5 mph59%29.74 "Hg10 mi
12:37 am64 °FClear.No wind55%29.76 "Hg10 mi
12:18 am64 °FClear.No wind56%29.76 "Hg10 mi
11:58 pm
Thu, Apr 27
65 °FClear.No wind54%29.75 "Hg10 mi
11:18 pm66 °FClear.No wind50%29.75 "Hg10 mi
10:58 pm67 °FClear.No wind49%29.75 "Hg10 mi
10:37 pm68 °FClear.No wind45%29.76 "Hg10 mi
10:18 pm69 °FClear.No wind46%29.75 "Hg10 mi
9:58 pm70 °FClear.No wind43%29.75 "Hg10 mi
9:37 pm72 °FClear.No wind37%29.75 "Hg10 mi
8:48 pm72 °FPassing clouds.5 mph38%29.75 "Hg7 mi
7:47 pm73 °FPassing clouds.5 mph38%29.73 "Hg7 mi
6:49 pm73 °FPartly sunny.8 mph38%29.73 "Hg7 mi
5:47 pm77 °FPartly sunny.9 mph34%29.73 "Hg7 mi
4:45 pm79 °FOvercast.9 mph34%29.73 "Hg7 mi
3:47 pm77 °FOvercast.9 mph34%29.74 "Hg7 mi
2:47 pm81 °FOvercast.9 mph30%29.74 "Hg7 mi
Weather by CustomWeather, © 2017

See weather overviewHow to use our weather pages